EW1970 Weather Reports


Display with metric or nautical units.
time (UTC)temp
F
wind
direction
speed
MPH
gust
MPH
rain 1hr
in
rain 24hr
in
rain mn
in
humidity
%
barometer
mb
20260901214516 97 70 0.0 4.0 0.00 0.00 0.00 41 1013.7
20260901213033 100 115 0.0 4.0 0.00 0.00 0.00 40 1013.8
20260901211530 98 123 1.0 5.0 0.00 0.00 0.00 41 1013.9
20260901210038 94 53 0.0 4.0 0.00 0.00 0.00 46 1014.1
20260901204520 100 49 1.0 4.0 0.00 0.00 0.00 41 1014.3
20260901203035 100 34 1.0 5.0 0.00 0.00 0.00 38 1014.5
20260901201531 99 248 1.0 3.0 0.00 0.00 0.00 41 1014.7
20260901200043 98 114 1.0 4.0 0.00 0.00 0.00 41 1015.0
20260901194547 98 255 0.0 4.0 0.00 0.00 0.00 43 1015.2
20260901193018 99 336 0.0 3.0 0.00 0.00 0.00 41 1015.4
20260901191530 98 223 1.0 3.0 0.00 0.00 0.00 41 1015.7
20260901190032 97 351 1.0 2.0 0.00 0.00 0.00 44 1015.8
20260901184530 96 5 0.0 3.0 0.00 0.00 0.00 47 1016.1
20260901183038 97 352 1.0 4.0 0.00 0.00 0.00 46 1016.3
20260901181522 92 352 0.0 3.0 0.00 0.00 0.00 52 1016.7
20260901180032 95 315 0.0 7.0 0.00 0.00 0.00 49 1016.9
20260901174505 96 279 0.0 3.0 0.00 0.00 0.00 48 1017.1
20260901173011 94 62 2.0 5.0 0.00 0.00 0.00 49 1017.3
20260901171517 94 154 0.0 3.0 0.00 0.00 0.00 50 1017.5
20260901170101 94 165 0.0 2.0 0.00 0.00 0.00 51 1017.7
20260901164512 93 352 1.0 3.0 0.00 0.00 0.00 51 1017.6
20260901163016 92 18 0.0 4.0 0.00 0.00 0.00 56 1017.7
20260901161515 91 73 0.0 3.0 0.00 0.00 0.00 58 1017.9
20260901160032 89 247 0.0 2.0 0.00 0.00 0.00 63 1017.8
20260901154527 87 43 0.0 2.0 0.00 0.00 0.00 65 1017.8
20260901153010 85 249 0.0 2.0 0.00 0.00 0.00 68 1017.7
20260901151514 84 219 0.0 4.0 0.00 0.00 0.00 69 1017.6
20260901150021 83 307 0.0 2.0 0.00 0.00 0.00 73 1017.8
20260901144527 82 187 0.0 3.0 0.00 0.00 0.00 77 1017.8
20260901143030 81 252 1.0 2.0 0.00 0.00 0.00 80 1018.1
20260901141510 80 176 0.0 2.0 0.00 0.00 0.00 82 1018.2
20260901140021 80 334 0.0 5.0 0.00 0.00 0.00 83 1018.3
20260901134524 78 269 0.0 1.0 0.00 0.00 0.00 1018.1
20260901133026 77 325 0.0 1.0 0.00 0.00 0.00 89 1017.9
20260901131537 76 273 0.0 0.0 0.00 0.00 0.00 90 1017.9
20260901130019 75 273 0.0 0.0 0.00 0.00 0.00 90 1017.6
20260901124522 75 273 0.0 0.0 0.00 0.00 0.00 90 1017.4
20260901123037 75 273 0.0 0.0 0.00 0.00 0.00 90 1017.4
20260901121536 75 273 0.0 0.0 0.00 0.00 0.00 89 1017.1
20260901120031 75 273 0.0 0.0 0.00 0.00 0.00 89 1017.0
20260901114520 76 273 0.0 0.0 0.00 0.00 0.00 88 1017.0
20260901113027 76 273 0.0 2.0 0.00 0.00 0.00 87 1017.0
20260901111530 77 252 0.0 1.0 0.00 0.00 0.00 87 1016.9
20260901110031 77 238 1.0 2.0 0.00 0.00 0.00 87 1017.0
20260901104535 77 235 0.0 2.0 0.00 0.00 0.00 85 1016.8
20260901103025 78 281 0.0 2.0 0.00 0.00 0.00 85 1016.9
20260901101504 78 236 0.0 4.0 0.00 0.00 0.00 85 1016.7
20260901100010 78 229 0.0 4.0 0.00 0.00 0.00 84 1016.7
20260901094508 78 248 1.0 3.0 0.00 0.00 0.00 84 1016.8
20260901093004 78 271 0.0 3.0 0.00 0.00 0.00 83 1016.8
20260901091504 77 186 0.0 2.0 0.00 0.00 0.00 1017.0
20260901090010 77 244 0.0 1.0 0.00 0.00 0.00 82 1016.9
20260901084508 78 244 0.0 2.0 0.00 0.00 0.00 81 1016.8
20260901083026 78 244 0.0 1.0 0.00 0.00 0.00 80 1016.7
20260901081503 78 113 0.0 0.0 0.00 0.00 0.00 79 1016.8
20260901080005 79 112 0.0 2.0 0.00 0.00 0.00 78 1016.8
20260901074518 79 125 0.0 0.0 0.00 0.00 0.00 77 1016.9
20260901073027 80 125 0.0 3.0 0.00 0.00 0.00 75 1016.9
20260901071515 80 127 0.0 2.0 0.00 0.00 0.00 75 1017.0
20260901070009 81 203 0.0 2.0 0.00 0.00 0.00 74 1016.9
20260901064508 81 129 0.0 4.0 0.00 0.00 0.00 73 1016.7
20260901063016 82 254 0.0 2.0 0.00 0.00 0.00 72 1016.7
20260901061521 82 240 0.0 4.0 0.00 0.00 0.00 72 1016.6
20260901060019 82 242 0.0 4.0 0.00 0.00 0.00 70 1016.5
20260901054506 83 165 0.0 3.0 0.00 0.00 0.00 69 1016.5
20260901053013 83 76 0.0 3.0 0.00 0.00 0.00 67 1016.3
20260901051518 83 288 1.0 3.0 0.00 0.00 0.00 66 1016.2
20260901050024 84 254 0.0 4.0 0.00 0.00 0.00 65 1016.1
20260901044526 84 104 0.0 7.0 0.00 0.00 0.00 64 1016.0
20260901043010 85 165 0.0 8.0 0.00 0.00 0.00 63 1016.0
20260901041514 85 179 1.0 4.0 0.00 0.00 0.00 62 1015.9
20260901040028 85 215 0.0 4.0 0.00 0.00 0.00 60 1016.0
20260901034533 86 106 1.0 7.0 0.00 0.00 0.00 59 1015.9
20260901033027 86 163 1.0 7.0 0.00 0.00 0.00 58 1015.8
20260901031529 86 88 1.0 8.0 0.00 0.00 0.00 56 1015.7
20260901030023 86 145 1.0 8.0 0.00 0.00 0.00 54 1015.5
20260901024509 85 117 0.0 8.0 0.00 0.00 0.00 52 1015.1
20260901023007 85 142 0.0 2.0 0.00 0.00 0.00 50 1014.9
20260901021510 85 77 0.0 2.0 0.00 0.00 0.00 50 1014.8
20260901020018 85 167 0.0 2.0 0.00 0.00 0.00 51 1014.4
20260901014503 86 132 0.0 2.0 0.00 0.00 0.00 50 1014.3
20260901013005 86 132 0.0 2.0 0.00 0.00 0.00 48 1014.2
20260901011507 87 40 0.0 2.0 0.00 0.00 0.00 47 1014.1
20260901010029 88 94 0.0 2.0 0.00 0.00 0.00 46 1014.0
20260901004526 90 140 0.0 3.0 0.00 0.00 0.00 44 1014.1
20260901003003 91 134 0.0 4.0 0.00 0.00 0.00 42 1014.1
20260901001513 92 153 0.0 2.0 0.00 0.00 0.00 42 1013.9
20260901000015 93 37 1.0 5.0 0.00 0.00 0.00 41 1013.9
20260831234517 94 139 0.0 3.0 0.00 0.00 0.00 40 1013.9
20260831233027 95 20 0.0 4.0 0.00 0.00 0.00 39 1014.0
20260831231504 97 55 0.0 4.0 0.00 0.00 0.00 36 1014.0
20260831230012 97 36 0.0 4.0 0.00 0.00 0.00 37 1014.0
20260831224514 97 108 1.0 4.0 0.00 0.00 0.00 35 1014.0
20260831223024 98 51 1.0 6.0 0.00 0.00 0.00 35 1014.2
20260831221534 97 146 1.0 4.0 0.00 0.00 0.00 35 1014.3
20260831220007 96 126 2.0 8.0 0.00 0.00 0.00 38 1014.3